This is the latest recevied weather packets stored in our database for station/object KA1JKB. If no packets are shown the sender has not sent any weather packets the latest 10 day(s).
| Time | Temp. | Humidity | Pressure | Rain* | Wind** | Luminosity | Snow |
|---|---|---|---|---|---|---|---|
| 1777564123 | 10° C | 71% | 1012.5 hPa | 0 mm | - | 900 W/m² | - |
| 1777563818 | 10° C | 72% | 1012.6 hPa | 0 mm | - | 856 W/m² | - |
| 1777563516 | 10° C | 74% | 1012.6 hPa | 0 mm | - | 953 W/m² | - |
| 1777563214 | 10° C | 74% | 1012.7 hPa | 0 mm | - | 970 W/m² | - |
| 1777562911 | 9.44° C | 75% | 1012.7 hPa | 0 mm | - | 933 W/m² | - |
| 1777562607 | 9.44° C | 75% | 1012.8 hPa | 0 mm | - | 874 W/m² | - |
| 1777562306 | 10° C | 75% | 1012.4 hPa | 0 mm | - | 174 W/m² | - |
| 1777562003 | 10° C | 77% | 1012.7 hPa | 0 mm | - | 285 W/m² | - |
| 1777561700 | 8.89° C | 78% | 1012.7 hPa | 0 mm | - | 845 W/m² | - |
| 1777561395 | 9.44° C | 78% | 1012.8 hPa | 0 mm | - | 918 W/m² | - |
| 1777561091 | 8.89° C | 79% | 1012.5 hPa | 0 mm | - | 838 W/m² | - |
| 1777560786 | 8.89° C | 79% | 1012.4 hPa | 0 mm | - | 192 W/m² | - |
| 1777560484 | 8.89° C | 78% | 1012.5 hPa | 0 mm | - | 826 W/m² | - |
| 1777560182 | 8.33° C | 78% | 1012.4 hPa | 0 mm | - | 209 W/m² | - |
| 1777559878 | 8.89° C | 79% | 1012.5 hPa | 0 mm | - | 215 W/m² | - |
| 1777559573 | 8.33° C | 80% | 1012.3 hPa | 0 mm | - | 856 W/m² | - |
| 1777559271 | 7.78° C | 81% | 1012.4 hPa | 0 mm | - | 157 W/m² | - |
| 1777558967 | 7.78° C | 80% | 1012.4 hPa | 0 mm | - | 179 W/m² | - |
| 1777558663 | 7.78° C | 84% | 1012.5 hPa | 0 mm | - | 157 W/m² | - |
| 1777558358 | 7.78° C | 84% | 1012.5 hPa | 0 mm | - | 734 W/m² | - |
| 1777558056 | 7.78° C | 87% | 1012.4 hPa | 0 mm | - | 711 W/m² | - |
| 1777557752 | 7.22° C | 88% | 1012.3 hPa | 0 mm | - | 329 W/m² | - |
| 1777557449 | 7.22° C | 89% | 1012.3 hPa | 0 mm | - | 367 W/m² | - |
| 1777557145 | 7.78° C | 86% | 1012.2 hPa | 0 mm | - | 258 W/m² | - |
| 1777556840 | 7.22° C | 87% | 1012.4 hPa | 0 mm | - | 583 W/m² | - |
* Rain latest hour (hover to see other rain measurements)
** Current wind speed in m/s (hover to see current wind gust speed)